Zurück zum Katalog

ISAT

AktivAmateurfunkPO
NORAD 43879·PAYLOAD·🇩🇪 Germany

Gestartet Dec 27, 2018 von Vostochny Cosmodrome

Loading…

Nächste Überflüge (nächste 24 Stunden)

TLE

AktuellSource: AMSAT

Epoche: Sep 13, 2026, 18:47 UTC

1 43879U 18111D   26256.78317077  .00446750  82188-4  11594-2 0  9993
2 43879  97.5792 200.3334 0007766 127.9061 232.2917 15.94996121425126

Verfolge ISAT in Echtzeit mit AllMySat

Download on the App Store